"Period start","avg(HW err(1)/warn(2) (#))","avg(Visibility (m))","avg(Weather code (#))","avg(Precip intensity (mm/h))","min(HW err(1)/warn(2) (#))","max(HW err(1)/warn(2) (#))","std(HW err(1)/warn(2) (#))","med(HW err(1)/warn(2) (#))","min(Visibility (m))","max(Visibility (m))","std(Visibility (m))","med(Visibility (m))","min(Weather code (#))","max(Weather code (#))","std(Weather code (#))","med(Weather code (#))","min(Precip intensity (mm/h))","max(Precip intensity (mm/h))","std(Precip intensity (mm/h))","med(Precip intensity (mm/h))"
2017-08-05 00:00:00,0,49016,0,0.00,0,0,0,0,46447,50000,1292,49984,0,0,0,0,0.00,0.00,0.00,0.00
2017-08-05 00:10:00,0,40043,0,0.00,0,0,0,0,14307,50000,12408,44776,0,0,0,0,0.00,0.00,0.00,0.00
2017-08-05 00:20:00,0,46174,0,0.00,0,0,0,0,36381,50000,4826,48546,0,0,0,0,0.00,0.00,0.00,0.00
2017-08-05 00:30:00,0,48636,0,0.00,0,0,0,0,42943,50000,2382,50000,0,0,0,0,0.00,0.00,0.00,0.00
2017-08-05 00:40:00,0,48953,0,0.00,0,0,0,0,45584,50000,1542,49896,0,0,0,0,0.00,0.00,0.00,0.00
2017-08-05 00:50:00,0,47302,0,0.00,0,0,0,0,40496,50000,3947,50000,0,0,0,0,0.00,0.00,0.00,0.00
2017-08-05 01:00:00,0,47502,0,0.00,0,0,0,0,37227,50000,4374,50000,0,0,0,0,0.00,0.00,0.00,0.00
2017-08-05 01:10:00,0,49192,0,0.00,0,0,0,0,46270,50000,1310,50000,0,0,0,0,0.00,0.00,0.00,0.00
2017-08-05 01:20:00,0,49822,0,0.00,0,0,0,0,48215,50000,536,50000,0,0,0,0,0.00,0.00,0.00,0.00
2017-08-05 01:30:00,0,50000,0,0.00,0,0,0,0,50000,50000,0,50000,0,0,0,0,0.00,0.00,0.00,0.00
2017-08-05 01:40:00,0,49306,0,0.00,0,0,0,0,46249,50000,1152,50000,0,0,0,0,0.00,0.00,0.00,0.00
2017-08-05 01:50:00,0,50000,0,0.00,0,0,0,0,50000,50000,0,50000,0,0,0,0,0.00,0.00,0.00,0.00
2017-08-05 02:00:00,0,48992,0,0.00,0,0,0,0,43055,50000,2085,50000,0,0,0,0,0.00,0.00,0.00,0.00
2017-08-05 02:10:00,0,49404,0,0.00,0,0,0,0,44037,50000,1789,50000,0,0,0,0,0.00,0.00,0.00,0.00
2017-08-05 02:20:00,0,49444,0,0.00,0,0,0,0,44442,50000,1667,50000,0,0,0,0,0.00,0.00,0.00,0.00
2017-08-05 02:30:00,0,48780,0,0.00,0,0,0,0,41585,50000,2487,50000,0,0,0,0,0.00,0.00,0.00,0.00
2017-08-05 02:40:00,0,47302,0,0.00,0,0,0,0,38977,50000,4191,49670,0,0,0,0,0.00,0.00,0.00,0.00
2017-08-05 02:50:00,0,48739,0,0.00,0,0,0,0,42275,50000,2470,50000,0,0,0,0,0.00,0.00,0.00,0.00
2017-08-05 03:00:00,0,48662,0,0.00,0,0,0,0,42874,50000,2095,49498,0,0,0,0,0.00,0.00,0.00,0.00
2017-08-05 03:10:00,0,47391,0,0.00,0,0,0,0,41309,50000,2873,48448,0,0,0,0,0.00,0.00,0.00,0.00
2017-08-05 03:20:00,0,49358,0,0.00,0,0,0,0,47275,50000,919,50000,0,0,0,0,0.00,0.00,0.00,0.00
2017-08-05 03:30:00,0,47917,0,0.00,0,0,0,0,42120,50000,2683,49356,0,0,0,0,0.00,0.00,0.00,0.00
2017-08-05 03:40:00,0,44894,0,0.00,0,0,0,0,39560,49074,2984,44471,0,0,0,0,0.00,0.00,0.00,0.00
2017-08-05 03:50:00,0,47226,0,0.00,0,0,0,0,36601,50000,4180,49842,0,0,0,0,0.00,0.00,0.00,0.00
2017-08-05 04:00:00,0,49184,0,0.00,0,0,0,0,45578,50000,1389,50000,0,0,0,0,0.00,0.00,0.00,0.00
2017-08-05 04:10:00,0,46550,0,0.00,0,0,0,0,37332,50000,4279,48759,0,0,0,0,0.00,0.00,0.00,0.00
2017-08-05 04:20:00,0,47042,0,0.00,0,0,0,0,37722,50000,3917,48777,0,0,0,0,0.00,0.00,0.00,0.00
2017-08-05 04:30:00,0,49540,0,0.00,0,0,0,0,47491,50000,765,50000,0,0,0,0,0.00,0.00,0.00,0.00
2017-08-05 04:40:00,0,48276,0,0.00,0,0,0,0,42287,50000,2824,50000,0,0,0,0,0.00,0.00,0.00,0.00
2017-08-05 04:50:00,0,49548,0,0.00,0,0,0,0,47493,50000,911,50000,0,0,0,0,0.00,0.00,0.00,0.00
2017-08-05 05:00:00,0,49111,0,0.00,0,0,0,0,46607,50000,1178,49890,0,0,0,0,0.00,0.00,0.00,0.00
2017-08-05 05:10:00,0,48503,0,0.00,0,0,0,0,42630,50000,2290,49718,0,0,0,0,0.00,0.00,0.00,0.00
2017-08-05 05:20:00,0,49327,0,0.00,0,0,0,0,45049,50000,1514,50000,0,0,0,0,0.00,0.00,0.00,0.00
2017-08-05 05:30:00,0,42352,0,0.00,0,0,0,0,9237,50000,13176,50000,0,0,0,0,0.00,0.00,0.00,0.00
2017-08-05 05:40:00,0,48036,0,0.00,0,0,0,0,44618,50000,2202,49342,0,0,0,0,0.00,0.00,0.00,0.00
2017-08-05 05:50:00,0,49839,0,0.00,0,0,0,0,48393,50000,482,50000,0,0,0,0,0.00,0.00,0.00,0.00
2017-08-05 06:00:00,0,49520,0,0.00,0,0,0,0,46362,50000,1108,50000,0,0,0,0,0.00,0.00,0.00,0.00
2017-08-05 06:10:00,0,48431,0,0.00,0,0,0,0,42776,50000,2307,49816,0,0,0,0,0.00,0.00,0.00,0.00
2017-08-05 06:20:00,0,48695,0,0.00,0,0,0,0,44377,50000,2099,50000,0,0,0,0,0.00,0.00,0.00,0.00
2017-08-05 06:30:00,0,48396,0,0.00,0,0,0,0,41013,50000,2817,50000,0,0,0,0,0.00,0.00,0.00,0.00
2017-08-05 06:40:00,0,49048,0,0.00,0,0,0,0,43520,50000,2053,50000,0,0,0,0,0.00,0.00,0.00,0.00
2017-08-05 06:50:00,0,49214,0,0.00,0,0,0,0,44045,50000,1814,50000,0,0,0,0,0.00,0.00,0.00,0.00
2017-08-05 07:00:00,0,49489,0,0.00,0,0,0,0,47005,50000,1040,50000,0,0,0,0,0.00,0.00,0.00,0.00
2017-08-05 07:10:00,0,49024,0,0.00,0,0,0,0,41108,50000,2651,50000,0,0,0,0,0.00,0.00,0.00,0.00
2017-08-05 07:20:00,0,49616,0,0.00,0,0,0,0,47363,50000,833,50000,0,0,0,0,0.00,0.00,0.00,0.00
2017-08-05 07:30:00,0,48711,0,0.00,0,0,0,0,43185,50000,2418,49978,0,0,0,0,0.00,0.00,0.00,0.00
2017-08-05 07:40:00,0,47858,0,0.00,0,0,0,0,37975,50000,3925,50000,0,0,0,0,0.00,0.00,0.00,0.00
2017-08-05 07:50:00,0,45776,0,0.00,0,0,0,0,7757,50000,12673,50000,0,0,0,0,0.00,0.00,0.00,0.00
2017-08-05 08:00:00,0,37524,0,0.00,0,0,0,0,2542,50000,17100,45392,0,0,0,0,0.00,0.00,0.00,0.00
2017-08-05 08:10:00,0,48886,0,0.00,0,0,0,0,45984,50000,1653,50000,0,0,0,0,0.00,0.00,0.00,0.00
2017-08-05 08:20:00,0,46549,0,0.00,0,0,0,0,35493,50000,5541,50000,0,0,0,0,0.00,0.00,0.00,0.00
2017-08-05 08:30:00,0,46826,0,0.00,0,0,0,0,37804,50000,4026,48525,0,0,0,0,0.00,0.00,0.00,0.00
2017-08-05 08:40:00,0,47665,0,0.00,0,0,0,0,38698,50000,3570,50000,0,0,0,0,0.00,0.00,0.00,0.00
2017-08-05 08:50:00,0,47778,0,0.00,0,0,0,0,41189,50000,3213,49478,0,0,0,0,0.00,0.00,0.00,0.00
2017-08-05 09:00:00,0,46841,0,0.00,0,0,0,0,38299,50000,3687,47936,0,0,0,0,0.00,0.00,0.00,0.00
2017-08-05 09:10:00,0,48969,0,0.00,0,0,0,0,43942,50000,2024,50000,0,0,0,0,0.00,0.00,0.00,0.00
2017-08-05 09:20:00,0,49930,0,0.00,0,0,0,0,49301,50000,210,50000,0,0,0,0,0.00,0.00,0.00,0.00
2017-08-05 09:30:00,0,49757,0,0.00,0,0,0,0,48533,50000,498,50000,0,0,0,0,0.00,0.00,0.00,0.00
2017-08-05 09:40:00,0,48425,0,0.00,0,0,0,0,42314,50000,2792,50000,0,0,0,0,0.00,0.00,0.00,0.00
2017-08-05 09:50:00,0,49838,0,0.00,0,0,0,0,48381,50000,486,50000,0,0,0,0,0.00,0.00,0.00,0.00
2017-08-05 10:00:00,0,50000,0,0.00,0,0,0,0,50000,50000,0,50000,0,0,0,0,0.00,0.00,0.00,0.00
2017-08-05 10:10:00,0,48334,0,0.00,0,0,0,0,37311,50000,3714,49870,0,0,0,0,0.00,0.00,0.00,0.00
2017-08-05 10:20:00,0,50000,0,0.00,0,0,0,0,50000,50000,0,50000,0,0,0,0,0.00,0.00,0.00,0.00
2017-08-05 10:30:00,0,48793,0,0.00,0,0,0,0,40720,50000,2816,50000,0,0,0,0,0.00,0.00,0.00,0.00
2017-08-05 10:40:00,0,49510,0,0.00,0,0,0,0,45182,50000,1443,50000,0,0,0,0,0.00,0.00,0.00,0.00
2017-08-05 10:50:00,0,49917,0,0.00,0,0,0,0,49637,50000,131,50000,0,0,0,0,0.00,0.00,0.00,0.00
2017-08-05 11:00:00,0,49277,0,0.00,0,0,0,0,42859,50000,2139,50000,0,0,0,0,0.00,0.00,0.00,0.00
2017-08-05 11:10:00,0,49994,0,0.00,0,0,0,0,49941,50000,18,50000,0,0,0,0,0.00,0.00,0.00,0.00
2017-08-05 11:20:00,0,50000,0,0.00,0,0,0,0,50000,50000,0,50000,0,0,0,0,0.00,0.00,0.00,0.00
2017-08-05 11:30:00,0,49997,0,0.00,0,0,0,0,49970,50000,9,50000,0,0,0,0,0.00,0.00,0.00,0.00
2017-08-05 11:40:00,0,49773,0,0.00,0,0,0,0,47732,50000,680,50000,0,0,0,0,0.00,0.00,0.00,0.00
2017-08-05 11:50:00,0,47826,0,0.00,0,0,0,0,42610,50000,2323,48400,0,0,0,0,0.00,0.00,0.00,0.00
2017-08-05 12:00:00,0,49452,0,0.00,0,0,0,0,47147,50000,980,50000,0,0,0,0,0.00,0.00,0.00,0.00
2017-08-05 12:10:00,0,50000,0,0.00,0,0,0,0,50000,50000,0,50000,0,0,0,0,0.00,0.00,0.00,0.00
2017-08-05 12:20:00,0,50000,0,0.00,0,0,0,0,50000,50000,0,50000,0,0,0,0,0.00,0.00,0.00,0.00
2017-08-05 12:30:00,0,50000,0,0.00,0,0,0,0,50000,50000,0,50000,0,0,0,0,0.00,0.00,0.00,0.00
2017-08-05 12:40:00,0,50000,0,0.00,0,0,0,0,50000,50000,0,50000,0,0,0,0,0.00,0.00,0.00,0.00
2017-08-05 12:50:00,0,50000,0,0.00,0,0,0,0,50000,50000,0,50000,0,0,0,0,0.00,0.00,0.00,0.00
2017-08-05 13:00:00,0,50000,0,0.00,0,0,0,0,50000,50000,0,50000,0,0,0,0,0.00,0.00,0.00,0.00
2017-08-05 13:10:00,0,50000,0,0.00,0,0,0,0,50000,50000,0,50000,0,0,0,0,0.00,0.00,0.00,0.00
2017-08-05 13:20:00,0,49943,0,0.00,0,0,0,0,49426,50000,172,50000,0,0,0,0,0.00,0.00,0.00,0.00
2017-08-05 13:30:00,0,50000,0,0.00,0,0,0,0,50000,50000,0,50000,0,0,0,0,0.00,0.00,0.00,0.00
2017-08-05 13:40:00,0,50000,0,0.00,0,0,0,0,50000,50000,0,50000,0,0,0,0,0.00,0.00,0.00,0.00
2017-08-05 13:50:00,0,50000,0,0.00,0,0,0,0,50000,50000,0,50000,0,0,0,0,0.00,0.00,0.00,0.00
2017-08-05 14:00:00,0,50000,0,0.00,0,0,0,0,50000,50000,0,50000,0,0,0,0,0.00,0.00,0.00,0.00
2017-08-05 14:10:00,0,50000,0,0.00,0,0,0,0,50000,50000,0,50000,0,0,0,0,0.00,0.00,0.00,0.00
2017-08-05 14:20:00,0,50000,0,0.00,0,0,0,0,50000,50000,0,50000,0,0,0,0,0.00,0.00,0.00,0.00
2017-08-05 14:30:00,0,50000,0,0.00,0,0,0,0,50000,50000,0,50000,0,0,0,0,0.00,0.00,0.00,0.00
2017-08-05 14:40:00,0,50000,0,0.00,0,0,0,0,50000,50000,0,50000,0,0,0,0,0.00,0.00,0.00,0.00
2017-08-05 14:50:00,0,50000,0,0.00,0,0,0,0,50000,50000,0,50000,0,0,0,0,0.00,0.00,0.00,0.00
2017-08-05 15:00:00,0,50000,0,0.00,0,0,0,0,50000,50000,0,50000,0,0,0,0,0.00,0.00,0.00,0.00
2017-08-05 15:10:00,0,50000,0,0.00,0,0,0,0,50000,50000,0,50000,0,0,0,0,0.00,0.00,0.00,0.00
2017-08-05 15:20:00,0,50000,0,0.00,0,0,0,0,50000,50000,0,50000,0,0,0,0,0.00,0.00,0.00,0.00
2017-08-05 15:30:00,0,50000,0,0.00,0,0,0,0,50000,50000,0,50000,0,0,0,0,0.00,0.00,0.00,0.00
2017-08-05 15:40:00,0,50000,0,0.00,0,0,0,0,50000,50000,0,50000,0,0,0,0,0.00,0.00,0.00,0.00
2017-08-05 15:50:00,0,50000,0,0.00,0,0,0,0,50000,50000,0,50000,0,0,0,0,0.00,0.00,0.00,0.00
2017-08-05 16:00:00,0,50000,0,0.00,0,0,0,0,50000,50000,0,50000,0,0,0,0,0.00,0.00,0.00,0.00
2017-08-05 16:10:00,0,50000,0,0.00,0,0,0,0,50000,50000,0,50000,0,0,0,0,0.00,0.00,0.00,0.00
2017-08-05 16:20:00,0,49956,0,0.00,0,0,0,0,49562,50000,131,50000,0,0,0,0,0.00,0.00,0.00,0.00
2017-08-05 16:30:00,0,50000,0,0.00,0,0,0,0,50000,50000,0,50000,0,0,0,0,0.00,0.00,0.00,0.00
2017-08-05 16:40:00,0,50000,0,0.00,0,0,0,0,50000,50000,0,50000,0,0,0,0,0.00,0.00,0.00,0.00
2017-08-05 16:50:00,0,50000,0,0.00,0,0,0,0,50000,50000,0,50000,0,0,0,0,0.00,0.00,0.00,0.00
2017-08-05 17:00:00,0,49567,0,0.00,0,0,0,0,46078,50000,1169,50000,0,0,0,0,0.00,0.00,0.00,0.00
2017-08-05 17:10:00,0,49653,0,0.00,0,0,0,0,47764,50000,656,50000,0,0,0,0,0.00,0.00,0.00,0.00
2017-08-05 17:20:00,0,49998,0,0.00,0,0,0,0,49979,50000,6,50000,0,0,0,0,0.00,0.00,0.00,0.00
2017-08-05 17:30:00,0,49063,0,0.00,0,0,0,0,44707,50000,1602,50000,0,0,0,0,0.00,0.00,0.00,0.00
2017-08-05 17:40:00,0,45286,0,0.00,0,0,0,0,34898,50000,5525,47870,0,0,0,0,0.00,0.00,0.00,0.00
2017-08-05 17:50:00,0,42509,0,0.00,0,0,0,0,27821,50000,7364,45126,0,0,0,0,0.00,0.00,0.00,0.00
2017-08-05 18:00:00,0,47687,0,0.00,0,0,0,0,44786,50000,1631,47054,0,0,0,0,0.00,0.00,0.00,0.00
2017-08-05 18:10:00,0,33246,0,0.00,0,0,0,0,27215,37812,3151,33564,0,0,0,0,0.00,0.00,0.00,0.00
2017-08-05 18:20:00,0,31063,0,0.00,0,0,0,0,25982,37764,3763,30428,0,0,0,0,0.00,0.00,0.00,0.00
2017-08-05 18:30:00,0,23308,0,0.00,0,0,0,0,15646,33156,6251,20801,0,0,0,0,0.00,0.00,0.00,0.00
2017-08-05 18:40:00,0,16200,0,0.00,0,0,0,0,14071,18446,1498,15778,0,0,0,0,0.00,0.00,0.00,0.00
2017-08-05 18:50:00,0,17927,0,0.00,0,0,0,0,16744,19490,802,18030,0,0,0,0,0.00,0.00,0.00,0.00
2017-08-05 19:00:00,0,13256,0,0.00,0,0,0,0,9727,18022,2612,12109,0,0,0,0,0.00,0.00,0.00,0.00
2017-08-05 19:10:00,0,8302,3,0.00,0,0,0,0,7007,10528,1103,8068,0,10,5,0,0.00,0.00,0.00,0.00
2017-08-05 19:20:00,0,6960,10,0.00,0,0,0,0,5527,9656,1336,6586,10,10,0,10,0.00,0.00,0.00,0.00
2017-08-05 19:30:00,0,6419,10,0.00,0,0,0,0,5364,7438,655,6484,10,10,0,10,0.00,0.00,0.00,0.00
2017-08-05 19:40:00,0,5794,10,0.00,0,0,0,0,4323,7139,833,5750,10,10,0,10,0.00,0.00,0.00,0.00
2017-08-05 19:50:00,0,4772,10,0.00,0,0,0,0,3206,8046,1622,3911,10,10,0,10,0.00,0.00,0.00,0.00
2017-08-05 20:00:00,0,4149,10,0.00,0,0,0,0,3237,5288,540,4082,10,10,0,10,0.00,0.00,0.00,0.00
2017-08-05 20:10:00,0,5086,10,0.00,0,0,0,0,4496,6226,625,4872,10,10,0,10,0.00,0.00,0.00,0.00
2017-08-05 20:20:00,0,4854,10,0.00,0,0,0,0,3697,7118,1121,4213,10,10,0,10,0.00,0.00,0.00,0.00
2017-08-05 20:30:00,0,3144,10,0.00,0,0,0,0,2601,3686,374,3066,10,10,0,10,0.00,0.00,0.00,0.00
2017-08-05 20:40:00,0,3195,10,0.00,0,0,0,0,2708,3785,262,3170,10,10,0,10,0.00,0.00,0.00,0.00
2017-08-05 20:50:00,0,2958,10,0.00,0,0,0,0,2674,3505,232,2982,10,10,0,10,0.00,0.00,0.00,0.00
2017-08-05 21:00:00,0,2888,10,0.00,0,0,0,0,2412,3169,267,2936,10,10,0,10,0.00,0.00,0.00,0.00
2017-08-05 21:10:00,0,2769,10,0.00,0,0,0,0,2457,3257,249,2728,10,10,0,10,0.00,0.00,0.00,0.00
2017-08-05 21:20:00,0,2064,10,0.00,0,0,0,0,1710,2395,209,2064,10,10,0,10,0.00,0.00,0.00,0.00
2017-08-05 21:30:00,0,1956,10,0.00,0,0,0,0,1519,2144,218,2054,10,10,0,10,0.00,0.00,0.00,0.00
2017-08-05 21:40:00,0,2152,10,0.00,0,0,0,0,1750,2827,320,2056,10,10,0,10,0.00,0.00,0.00,0.00
2017-08-05 21:50:00,0,2350,10,0.00,0,0,0,0,2021,2992,293,2256,10,10,0,10,0.00,0.00,0.00,0.00
2017-08-05 22:00:00,0,2249,10,0.00,0,0,0,0,2072,2518,122,2221,10,10,0,10,0.00,0.00,0.00,0.00
2017-08-05 22:10:00,0,2259,10,0.00,0,0,0,0,1932,2597,223,2196,10,10,0,10,0.00,0.00,0.00,0.00
2017-08-05 22:20:00,0,2559,10,0.00,0,0,0,0,2193,3048,248,2494,10,10,0,10,0.00,0.00,0.00,0.00
2017-08-05 22:30:00,0,2578,10,0.00,0,0,0,0,2117,2947,259,2635,10,10,0,10,0.00,0.00,0.00,0.00
2017-08-05 22:40:00,0,2721,10,0.00,0,0,0,0,2214,3358,399,2750,10,10,0,10,0.00,0.00,0.00,0.00
2017-08-05 22:50:00,0,3113,10,0.00,0,0,0,0,2754,3573,273,3053,10,10,0,10,0.00,0.00,0.00,0.00
2017-08-05 23:00:00,0,2887,10,0.00,0,0,0,0,2548,3394,278,2833,10,10,0,10,0.00,0.00,0.00,0.00
2017-08-05 23:10:00,0,3343,10,0.00,0,0,0,0,3100,3893,256,3236,10,10,0,10,0.00,0.00,0.00,0.00
2017-08-05 23:20:00,0,4047,10,0.00,0,0,0,0,3546,4936,400,3972,10,10,0,10,0.00,0.00,0.00,0.00
2017-08-05 23:30:00,0,3147,10,0.00,0,0,0,0,2611,4661,561,3061,10,10,0,10,0.00,0.00,0.00,0.00
2017-08-05 23:40:00,0,2880,10,0.00,0,0,0,0,2338,3572,380,2852,10,10,0,10,0.00,0.00,0.00,0.00
2017-08-05 23:50:00,0,4598,10,0.00,0,0,0,0,3008,7807,1489,3960,10,10,0,10,0.00,0.00,0.00,0.00
